FLOCK 3M-2 (42998 NORAD) Tracking and Keplerian Element Data

This shows tracking and keplerian element data for the satellite.

Feedback or suggestion? Click here.




ElementValue
Catalog42998
NameFLOCK 3M-2
Epoch Orbit21669
Epoch Day269.79706583
Epoch Year2021
RAAN17.5151
Inclination97.4301
Eccentricity0.0011538
Argument of Perigee271.478
Mean Anonmoly88.5135
Mean Motion15.23954402
Decay Rate8.266E-05
L11 42998U 17068M 21269.79706583 .00008266 00000-0 34399-3 0 9992
L22 42998 97.4301 17.5151 0011538 271.4780 88.5135 15.23954402216694

Live tracking and technical data element details for FLOCK 3M-2 (NORAD 42998). FLOCK 3M-2 can be tracked NOW for your location showing map with azimuth and elevation plus other details from your city location.

Track the satellite on the map from your city or location and see movement details for azimuth, elevation, latitude, longitude, range, height, and movement on the map or in text.







IsCatalogInMostPopularTable: catalog: 42998, numindb: 586
Update: records affected: 1



GetName: 42998 FLOCK 3M-2

Hit Count: updated at: Mon, 27 Sep 2021 22:11:46 GMT